Vorticity
nan nan nan nan nan nan nan nan nan nan nan nan nan nan nan nan nan nan nan nan nan nan nan nan nan nan nan nan nan nan nan nan nan nan nan nan nan nan nan nan nan nan nan nan nan nan nan
nan 7 8 7 4 5 7 6 10 15 12 8 7 8 7 7 6 5 5 6 5 5 5 6 7 16 12 3 16 11 5 3 6 6 8 7 7 9 6 7 9 5 7 8 9 10 nan
nan 8 8 8 6 5 6 6 6 11 14 10 8 8 7 7 7 6 6 5 5 6 6 6 11 15 10 6 7 9 5 2 6 5 6 8 10 8 7 9 9 6 9 14 13 10 nan
nan 9 6 8 7 6 6 6 5 6 13 14 9 8 7 7 7 6 6 5 6 5 8 9 13 10 4 10 10 5 3 5 9 9 8 7 7 6 7 6 7 12 8 8 6 10 nan
nan 8 10 8 8 7 6 6 6 6 9 15 13 8 7 8 7 7 6 7 7 12 14 13 9 8 5 9 13 15 11 6 6 8 9 6 7 5 7 11 7 11 9 2 10 10 nan
nan 5 9 10 8 7 6 5 7 6 8 14 15 9 8 8 7 7 10 12 11 14 18 10 5 7 14 11 9 14 12 11 9 7 10 6 6 5 4 7 6 5 6 6 6 5 nan
nan 5 5 8 10 8 6 5 6 6 6 8 16 13 10 8 9 6 8 13 16 12 13 7 -0 -0 0 9 10 10 10 9 9 9 9 5 4 5 8 2 2 3 7 7 7 7 nan
nan 6 5 7 8 10 7 5 8 7 6 5 12 17 11 10 11 7 7 7 10 10 10 11 7 6 2 10 6 5 14 11 8 4 3 9 10 8 6 6 9 8 6 8 8 10 nan
nan 7 7 6 6 9 10 9 7 8 7 6 6 18 16 12 7 8 7 1 -4 10 16 13 17 9 17 10 4 8 7 8 7 9 9 5 3 5 5 4 10 9 9 8 7 14 nan
nan 9 10 8 6 10 14 10 8 8 7 6 5 14 15 10 4 7 10 6 3 7 10 14 12 12 14 2 14 17 9 5 3 10 9 7 13 9 5 9 11 8 10 7 8 11 nan
nan 7 7 10 10 9 10 10 10 9 8 7 6 7 22 7 -0 6 9 16 9 7 9 12 11 14 18 8 7 11 11 14 9 6 6 4 9 16 17 15 10 11 9 11 10 5 nan
nan 8 7 6 8 12 10 7 9 11 11 8 6 2 16 9 1 6 11 10 5 10 8 9 15 9 7 10 6 11 8 9 18 9 2 5 -1 4 7 11 12 10 8 8 12 9 nan
nan 7 7 7 7 8 10 9 8 10 12 8 6 8 9 10 12 5 9 12 8 7 5 11 11 10 7 9 5 9 10 8 7 11 11 12 6 3 6 6 12 8 8 7 7 11 nan
nan 7 7 8 9 8 7 7 8 10 9 9 9 11 11 10 8 14 7 8 13 13 -1 3 12 14 6 4 12 10 7 9 7 2 16 11 18 23 13 10 5 7 6 9 9 6 nan
nan 9 9 9 9 9 8 6 6 10 9 9 14 13 9 13 7 9 13 7 9 6 7 -5 7 10 9 7 11 11 9 8 14 7 5 5 8 14 14 21 6 5 9 7 5 8 nan
nan 10 9 8 9 9 9 8 7 8 10 9 10 12 15 13 14 9 10 15 6 -4 9 8 -7 8 13 9 7 9 7 6 13 7 1 7 13 9 12 15 12 10 3 6 11 13 nan
nan 15 11 10 9 9 9 9 7 6 8 8 6 9 21 18 6 14 11 14 10 7 -0 15 1 -6 10 12 8 6 2 12 18 14 -0 1 8 7 10 11 9 3 6 8 11 8 nan
nan 17 18 12 10 9 8 10 9 8 6 7 9 7 11 17 6 16 23 7 5 2 2 -2 18 13 6 10 10 9 7 8 13 15 14 2 3 12 4 7 11 12 11 6 5 9 nan
nan 14 19 16 12 11 10 10 11 10 1 2 10 10 12 13 11 16 18 10 9 7 5 3 6 13 11 8 10 13 10 9 13 10 11 7 4 5 7 14 16 14 11 9 7 15 nan
nan 14 9 15 22 17 12 12 12 10 1 -2 6 16 14 8 12 28 9 17 5 8 6 2 0 3 12 10 9 13 9 11 15 10 10 9 10 13 9 7 9 10 8 9 8 7 nan
nan 13 8 12 27 22 12 13 14 10 1 -2 7 10 11 8 25 26 8 6 8 4 15 2 0 2 2 6 11 10 11 6 9 13 13 12 8 8 10 8 7 9 8 8 6 4 nan
nan 11 11 6 22 28 14 13 14 10 0 -4 7 10 11 9 25 22 10 6 9 3 2 5 15 16 -2 2 8 9 9 11 8 8 8 11 17 11 8 11 8 3 9 8 5 6 nan
nan 10 11 9 13 20 20 16 15 9 -5 -2 6 9 12 16 20 14 14 13 10 6 1 9 -5 19 22 5 7 12 7 11 13 10 9 12 11 10 11 7 5 20 19 9 10 14 nan
nan 10 10 10 11 14 19 20 14 11 -7 -7 9 11 12 14 22 14 12 10 13 9 5 11 9 -7 12 16 7 8 12 14 6 8 11 9 8 11 11 7 8 14 13 13 15 6 nan
nan 10 9 10 12 12 11 18 21 14 -4 -6 5 8 13 21 19 18 12 2 -1 15 24 3 15 5 -1 4 8 7 9 15 11 8 6 8 8 11 14 2 3 12 12 12 12 2 nan
nan 11 11 11 10 13 7 22 36 18 -2 -3 7 3 10 18 27 26 12 4 6 6 15 8 7 24 6 2 10 11 7 10 9 14 13 4 9 5 6 10 6 14 15 11 7 11 nan
nan 12 13 14 14 9 22 27 15 11 3 -4 11 11 2 6 26 32 17 12 6 6 2 16 13 8 10 12 11 6 11 9 12 7 5 6 14 12 3 5 9 17 11 9 8 16 nan
nan 14 15 14 7 22 26 12 9 9 4 -1 5 14 8 2 9 17 27 23 7 11 8 3 5 9 16 14 9 10 14 11 13 10 13 4 6 10 10 10 16 10 18 12 8 14 nan
nan nan nan nan nan nan nan nan nan nan nan nan nan nan nan nan nan nan nan nan nan nan nan nan nan nan nan nan nan nan nan nan nan nan nan nan nan nan nan nan nan nan nan nan nan nan nan
CAPE
1 0 0 0 0 0 0 0 0 1 0 0 0 0 0 0 0 0 0 0 0 0 0 0 0 0 0 0 0 0 0 0 0 0 0 0 0 0 0 0 0 0 0 0 0 0 0
6 14 10 4 0 0 0 0 0 0 0 0 0 0 0 0 0 0 0 0 0 0 0 0 0 0 0 0 0 0 0 0 0 0 0 0 0 0 0 0 0 0 0 0 0 0 0
9 9 24 24 11 0 0 0 0 0 0 0 0 0 0 0 0 0 0 0 0 0 0 0 0 0 0 0 0 0 0 0 0 0 0 0 0 0 0 0 0 0 0 0 0 0 0
10 23 17 29 26 13 0 0 0 0 0 0 0 0 0 0 0 0 0 0 0 0 0 0 0 0 0 0 0 0 0 0 0 0 0 0 0 0 0 0 0 0 0 0 0 0 0
27 24 32 21 35 31 17 5 0 0 0 0 0 0 0 0 0 0 0 0 0 0 0 0 0 0 0 0 0 0 0 0 0 0 0 0 0 0 0 0 0 0 0 0 0 0 0
6 0 26 38 30 32 33 22 9 0 0 0 0 0 0 0 0 0 0 0 0 0 0 0 0 0 0 0 0 0 0 0 0 0 0 0 0 0 0 0 0 0 0 0 0 0 0
13 0 1 3 36 34 35 32 15 0 0 0 0 1 0 0 0 0 0 0 0 0 0 0 0 0 0 0 0 0 0 0 0 0 0 0 0 0 0 0 0 0 0 0 0 0 0
23 5 0 2 9 31 26 22 17 11 4 0 0 3 0 0 0 0 0 0 0 0 0 0 0 0 0 0 0 0 0 0 0 0 0 0 0 0 0 0 0 0 0 0 0 0 0
40 20 0 0 2 1 20 23 18 17 16 8 0 2 0 0 0 0 0 0 0 0 0 0 0 0 0 0 0 0 0 0 0 0 0 0 0 0 0 0 0 0 0 0 0 0 0
30 35 31 9 1 1 31 45 26 30 26 14 8 3 3 0 0 0 0 0 0 0 0 0 0 0 0 0 0 0 0 0 0 0 0 0 0 0 0 0 0 0 0 0 0 0 0
28 27 11 18 31 30 37 31 39 33 33 19 2 2 9 1 0 0 0 0 0 0 0 0 0 0 0 0 0 0 0 0 0 0 0 0 0 0 0 0 0 0 0 0 0 0 0
42 45 31 4 0 31 42 23 24 37 36 19 1 0 1 2 2 0 0 0 7 0 0 0 0 0 0 0 0 0 0 0 0 0 0 0 0 0 0 0 0 0 0 0 0 0 0
50 45 51 39 12 26 40 44 26 21 38 38 15 2 18 54 12 0 0 2 49 5 0 0 0 0 0 0 0 0 0 0 0 0 0 0 0 0 0 0 0 0 0 0 0 0 0
75 59 39 48 56 50 41 28 37 31 37 22 27 9 15 24 31 0 4 69 89 7 0 0 0 0 0 0 0 0 0 0 0 0 0 0 0 0 0 0 0 0 0 0 0 0 0
97 89 72 89 104 102 94 46 33 55 46 29 42 9 24 1 37 8 65 122 64 0 0 0 0 0 0 0 0 0 0 0 0 0 0 0 0 0 0 0 0 0 0 0 0 0 0
96 105 109 107 130 139 136 89 69 74 67 48 23 20 5 0 9 1 76 43 70 0 0 0 0 0 0 0 0 0 0 0 0 0 0 0 0 0 0 0 0 0 0 0 0 0 0
51 98 113 115 127 150 161 155 115 74 81 65 42 38 0 0 85 39 5 25 9 0 0 0 0 0 0 0 0 0 0 0 0 0 0 0 0 0 0 0 0 0 0 0 0 0 0
37 62 160 123 131 181 191 160 151 107 100 51 53 5 2 25 63 9 1 0 0 0 0 0 0 0 0 0 0 0 0 0 0 0 0 0 0 0 0 0 0 0 0 0 0 0 0
44 71 101 204 220 153 185 184 173 124 129 29 45 10 10 127 50 1 25 0 0 4 0 0 0 0 0 0 0 0 0 0 0 0 0 0 0 0 0 0 0 0 0 0 0 0 0
51 69 52 41 108 280 207 202 180 149 137 52 49 6 12 89 34 1 1 6 10 0 0 0 0 0 0 0 0 0 0 0 0 0 0 0 0 0 0 0 0 0 0 0 0 0 0
66 54 40 3 273 256 296 319 256 204 149 80 54 7 64 0 1 3 0 0 5 20 0 0 0 0 0 0 0 0 0 0 0 0 0 0 0 0 0 0 0 0 0 0 0 0 0
96 95 43 3 27 266 287 302 283 222 189 76 0 23 1 0 16 0 0 0 0 10 0 0 0 0 0 0 0 0 0 0 0 0 0 0 5 0 0 0 0 0 0 0 0 0 0
137 109 79 37 19 137 269 271 274 240 167 14 16 0 18 7 34 3 0 0 0 0 0 0 0 0 0 0 0 0 0 1 24 11 4 1 0 0 0 0 0 0 0 0 0 0 0
73 100 102 93 53 36 86 216 220 198 109 11 25 11 27 20 52 1 0 0 0 0 0 0 0 0 0 0 0 0 0 0 0 0 0 0 0 0 0 0 0 0 0 0 0 0 0
81 116 123 112 77 71 58 54 70 81 70 24 13 53 35 26 11 0 0 0 0 8 19 0 0 0 0 3 4 15 0 0 0 0 0 0 0 0 1 0 0 0 0 0 0 0 0
96 112 121 101 66 69 60 57 57 76 64 33 27 10 3 34 34 0 0 1 0 0 6 0 0 0 0 18 7 31 2 0 0 0 0 0 0 0 0 0 0 0 0 0 0 0 0
77 100 114 86 71 44 46 49 44 23 55 30 15 12 24 1 0 0 0 1 1 1 0 0 3 0 11 13 13 13 1 0 0 0 0 0 0 0 0 0 0 0 0 0 0 0 0
60 83 82 54 43 33 15 21 28 43 47 41 11 26 21 5 1 0 0 3 4 9 0 0 29 11 27 44 7 1 0 0 0 0 0 0 0 0 0 0 0 0 0 0 0 0 0
57 53 45 30 12 28 27 22 19 29 38 63 9 47 9 0 0 0 1 1 0 0 0 0 1 10 4 20 0 0 1 0 0 0 0 0 0 0 0 0 0 0 0 0 0 0 0